Weather Roundup
Issued by NWS

Home | Current Version | Previous Version | Graphics & Text | Print | Product List | Glossary Off
Versions: 1 2 3 4 5 6 7 8 9 10 11 12 13 14 15 16 17 18 19 20 21 22 23 24 25 26 27 28 29 30 31 32 33 34 35 36 37 38 39 40 41 42 43 44 45 46 47 48 49 50

535
NZUS93 KARX 250510
HRRWXR

CURRENT HOURLY OBSERVATIONS ACROSS
MUCH OF THE UPPER MISSISSIPPI VALLEY
NATIONAL WEATHER SERVICE LA CROSSE WI
1200 AM CDT MON SEP 25 2017


...SOUTHEAST MINNESOTA...


CITY           SKY/WX    TMP DP  RH WIND       PRES   REMARKS
ROCHESTER      CLEAR     67  63  87 S5        29.96S
ROCHESTER/MAYO FAIR      74  61  63 SE6       29.95S
WINONA         CLEAR     77  61  57 CALM      29.92S
AUSTIN         PTCLDY    70  63  78 S3        29.96R
ALBERT LEA     MOCLDY    72  68  88 CALM      29.95S
DODGE CENTER   CLOUDY    68  63  83 CALM      29.96R
PRESTON        CLEAR     69  61  76 W9        29.98R
OWATONNA       LGT RAIN  70  66  88 CALM      29.95S
FARIBAULT      CLOUDY    70  66  88 CALM      29.96R
$$

...ELSEWHERE IN MINNESOTA...


CITY           SKY/WX    TMP DP  RH WIND       PRES   REMARKS
MINNEAPOLIS    CLOUDY    72  67  84 W7        29.93R
INTNL FALLS    MOCLDY    56  53  90 W9        29.89R
DULUTH         CLEAR     65  65 100 W7        29.88S
RED WING       CLOUDY    73  63  68 CALM      29.91R
REDWOOD FALLS  LGT RAIN  58  55  90 N8        29.97R
MANKATO        CLOUDY    64  61  90 NW9       29.96S
WORTHINGTON    LGT RAIN  57  57 100 N10       29.97F
FAIRMONT       MOCLDY    64  62  93 N9        29.96S
$$

...SOUTHWEST WISCONSIN...


CITY           SKY/WX    TMP DP  RH WIND       PRES   REMARKS
LA CROSSE      CLEAR     76  65  68 SE5       29.93S
PRAIRIE DU CHI CLEAR     72  61  69 E3        29.95S
BOSCOBEL       CLEAR     68  64  87 CALM      29.96S
LONE ROCK      CLEAR     66  63  90 CALM      29.97S
PLATTEVILLE    CLEAR     72  63  73 SE7       29.99S
FORT MC COY    CLEAR     75  62  62 S3        29.96S
CAMP DOUGLAS   PTCLDY    67  60  80 S7        29.96S
MAUSTON-NEW LI PTCLDY    65  62  90 SE3       29.97R
VIROQUA        FAIR      72  62  71 S6        29.98S
WIS DELLS      CLEAR     70  58  66 S3        29.98F
$$

...ELSEWHERE IN WISCONSIN...


CITY           SKY/WX    TMP DP  RH WIND       PRES   REMARKS
MILWAUKEE      CLEAR     74  62  66 S6        30.00F
MADISON        CLEAR     74  60  61 S6        29.99S
GREEN BAY      CLEAR     70  63  78 S5        29.98F
EAU CLAIRE     PTCLDY    75  63  66 SW9       29.92R
BLACK RVR FLS  FAIR      64  62  95 CALM      29.95R
MEDFORD        CLEAR     67  59  76 S7        29.97S
WAUSAU         CLEAR     67  60  78 SE5       29.97S
WIS RAPIDS     CLEAR     70  60  70 S5        29.98F
MARSHFIELD     CLEAR     68  59  73 S5        29.97S
RICE LAKE      CLOUDY    74  63  68 S3        29.93R
$$

...NORTHEAST IOWA...


CITY           SKY/WX    TMP DP  RH WIND       PRES   REMARKS
WATERLOO       CLEAR     71  62  73 SE5       29.93F
DUBUQUE        CLEAR     68  62  81 S6        29.98F
DECORAH        CLEAR     72  63  73 S5        29.96R
MASON CITY     MOCLDY    69  63  81 NE5       29.96F
CHARLES CITY   CLEAR     72  63  73 VRB5      29.95S
OELWEIN        CLEAR     68  64  88 SE7       29.97S
$$

...ELSEWHERE IN IOWA...


CITY           SKY/WX    TMP DP  RH WIND       PRES   REMARKS
DES MOINES     PTCLDY    74  63  68 SE7       29.91F
IOWA CITY      CLEAR     71  64  78 CALM      29.96F
FORT DODGE     CLOUDY    68  66  93 E5        29.93F
MARSHALLTOWN   CLEAR     66  63  90 E7        29.93F
CEDAR RAPIDS     N/A     70  63  78 SE5       29.95S
$$

...NORTHERN ILLINOIS...


CITY           SKY/WX    TMP DP  RH WIND       PRES   REMARKS
CHICAGO-OHARE  CLEAR     73  61  65 SE5       30.00F
CHICAGO-MIDWAY CLEAR     78  61  55 S6        30.00F
MOLINE         CLEAR     70  62  76 E3        29.96S
ROCKFORD       CLEAR     71  60  68 CALM      30.00S
PEORIA         CLEAR     76  59  55 S3        29.97F
$$

NOTE: "FAIR" INDICATES FEW OR NO CLOUDS BELOW 12,000 FEET WITH NO
SIGNIFICANT WEATHER AND/OR OBSTRUCTIONS TO VISIBILITY. WIND
SPEEDS ARE IN MILES-PER-HOUR.




USA.gov is the U.S. government's official web portal to all federal, state and local government web resources and services.